Weather History for KHLN - April, 2014

Change the Weather History Date:

Friday, April 11, 2014

  Actual Average Record
Temperature  
Mean Temperature 52 °F 43 °F  
Max Temperature 66 °F 56 °F 76 °F (1949)
Min Temperature 38 °F 31 °F 5 °F (1940)
Degree Days  
Heating Degree Days 13 22  
Month to date heating degree days 204 228  
Since 1 July heating degree days 6648 6680  
Cooling Degree Days 0 0  
Month to date cooling degree days 0 0  
Year to date cooling degree days 0 0  
Growing Degree Days 2 (Base 50)    
Moisture  
Dew Point 24 °F    
Average Humidity 39    
Maximum Humidity 55    
Minimum Humidity 22    
Precipitation  
Precipitation 0.00 in 0.03 in 0.71 in (1941)
Month to date precipitation T 0.28  
Year to date precipitation 3.33 1.53  
Snow  
Snow 0.00 in 0.10 in 4.20 in (1903)
Month to date snowfall 0.0 1.4  
Since 1 July snowfall 41.8 34.9  
Snow Depth 0.00 in    
Sea Level Pressure  
Sea Level Pressure 29.87 in    
Wind  
Wind Speed 9 mph (WNW)    
Max Wind Speed 26 mph    
Max Gust Speed 37 mph    
Visibility 10 miles    
Events      
T = Trace of Precipitation, MM = Missing Value Source: NWS Daily Summary

Daily Weather History Graph

Daily Weather History Graph

Search for Another Location

Airport or City:

Trip Planner

Search our weather history database for the weather conditions in past years. The results will help you decide how hot, cold, wet, or windy it might be!

Date:

Astronomy

Apr. 11, 2014 Rise Set
Actual Time 6:48 AM MDT 8:10 PM MDT
Civil Twilight 6:16 AM MDT 8:42 PM MDT
Nautical Twilight 5:38 AM MDT 9:20 PM MDT
Astronomical Twilight 4:58 AM MDT 10:00 PM MDT
Moon 4:43 PM MDT (4/11) 4:57 AM MDT (4/11)
Length of Visible Light 14h 25m
Length of Day
13h 22m
Waxing Gibbous, 87% of the Moon is Illuminated
Apr 11
Waxing Gibbous
Apr 15
Full
Apr 22
Last Quarter
Apr 29
New
May 6
First Quarter

Hourly Weather History & Observations

Time (MDT) Temp. Windchill Dew Point Humidity Pressure Visibility Wind Dir Wind Speed Gust Speed Precip Events Conditions
12:53 AM 51.1 °F - 19.0 °F 28% 30.00 in 10.0 mi WSW 9.2 mph - N/A   Clear
1:53 AM 48.9 °F - 19.0 °F 31% 29.99 in 10.0 mi Calm Calm - N/A   Clear
2:53 AM 48.0 °F - 19.9 °F 33% 29.97 in 10.0 mi WNW 9.2 mph - N/A   Clear
3:53 AM 48.0 °F - 19.9 °F 33% 29.96 in 10.0 mi SW 5.8 mph - N/A   Clear
4:53 AM 46.9 °F - 19.9 °F 34% 29.95 in 10.0 mi South 3.5 mph - N/A   Clear
5:53 AM 46.0 °F 42.5 °F 21.0 °F 37% 29.94 in 10.0 mi WNW 6.9 mph - N/A   Clear
6:53 AM 39.0 °F 36.8 °F 24.1 °F 55% 29.95 in 10.0 mi NW 3.5 mph - N/A   Clear
7:53 AM 41.0 °F 39.0 °F 26.1 °F 55% 29.95 in 10.0 mi West 3.5 mph - N/A   Clear
8:53 AM 41.0 °F - 26.1 °F 55% 29.95 in 10.0 mi Calm Calm - N/A   Clear
9:53 AM 46.0 °F 44.8 °F 24.1 °F 42% 29.93 in 10.0 mi NNW 3.5 mph - N/A   Scattered Clouds
10:53 AM 54.0 °F - 21.9 °F 29% 29.89 in 10.0 mi West 18.4 mph - N/A   Mostly Cloudy
11:53 AM 54.0 °F - 23.0 °F 30% 29.88 in 10.0 mi WNW 8.1 mph 17.3 mph N/A   Scattered Clouds
12:53 PM 57.9 °F - 25.0 °F 28% 29.84 in 10.0 mi WSW 10.4 mph 23.0 mph N/A   Mostly Cloudy
1:53 PM 62.1 °F - 25.0 °F 24% 29.80 in 10.0 mi West 23.0 mph 32.2 mph N/A   Clear
2:53 PM 64.0 °F - 26.1 °F 24% 29.77 in 10.0 mi West 21.9 mph 32.2 mph N/A   Clear
3:53 PM 64.9 °F - 25.0 °F 22% 29.76 in 10.0 mi West 15.0 mph 23.0 mph N/A   Partly Cloudy
4:53 PM 64.9 °F - 25.0 °F 22% 29.75 in 10.0 mi NW 18.4 mph - N/A   Partly Cloudy
5:53 PM 64.0 °F - 24.1 °F 22% 29.73 in 10.0 mi WNW 16.1 mph 27.6 mph N/A   Clear
6:53 PM 62.1 °F - 24.1 °F 23% 29.77 in 10.0 mi WNW 15.0 mph - N/A   Clear
7:53 PM 57.0 °F - 25.0 °F 29% 29.79 in 10.0 mi WNW 10.4 mph - N/A   Clear
8:53 PM 53.1 °F - 25.0 °F 34% 29.84 in 10.0 mi West 10.4 mph - N/A   Clear
9:53 PM 50.0 °F - 25.0 °F 38% 29.86 in 10.0 mi WNW 4.6 mph - N/A   Scattered Clouds
10:53 PM 50.0 °F - 28.9 °F 44% 29.86 in 10.0 mi North 8.1 mph - N/A   Overcast
11:53 PM 46.9 °F - 28.9 °F 50% 29.86 in 10.0 mi WNW 5.8 mph - N/A   Partly Cloudy